• In Deutschland
  • Länderverzeichnis
  • Für 7 Tage
  • Wassertemperatur
  • Satellitenkarten
  • Wetterkarte
  • Widgets
  • user-avatar
    Anmelden

    Stündliche Wetter Northeim

    Heute, 26 April, Donnerstag

    Zeit Temperatur Niederschläge Wind Luftdruck Luftfeuchtigkeit
    00:00 +6°C° 0 mm 2 m/S 746 mmHg 91%
    01:00 +6°C° 0 mm 2 m/S 746 mmHg 91%
    02:00 +5°C° 0,1 mm 3 m/S 746 mmHg 91%
    03:00 +5°C° 0,1 mm 3 m/S 746 mmHg 92%
    04:00 +5°C° 0,1 mm 4 m/S 746 mmHg 92%
    05:00 +5°C° 0,1 mm 4 m/S 746 mmHg 90%
    06:00 +6°C° 0,1 mm 5 m/S 746 mmHg 88%
    07:00 +5°C° 0 mm 6 m/S 746 mmHg 84%
    08:00 +7°C° 0,3 mm 6 m/S 746 mmHg 83%
    09:00 +6°C° 0,3 mm 7 m/S 747 mmHg 81%
    10:00 +8°C° 0,3 mm 7 m/S 747 mmHg 80%
    11:00 +9°C° 0,3 mm 7 m/S 747 mmHg 75%
    12:00 +10°C° 0,3 mm 7 m/S 747 mmHg 71%
    13:00 +11°C° 0,3 mm 7 m/S 748 mmHg 66%
    14:00 +11°C° 0,3 mm 7 m/S 748 mmHg 65%
    15:00 +11°C° 0,3 mm 6 m/S 748 mmHg 64%
    16:00 +11°C° 0,3 mm 6 m/S 748 mmHg 63%
    17:00 +10°C° 0,1 mm 5 m/S 748 mmHg 68%
    18:00 +10°C° 0,1 mm 4 m/S 748 mmHg 73%
    19:00 +9°C° 0,1 mm 3 m/S 748 mmHg 78%
    20:00 +8°C° 0 mm 2 m/S 748 mmHg 82%
    21:00 +7°C° 0 mm 2 m/S 749 mmHg 85%
    22:00 +6°C° 0 mm 2 m/S 749 mmHg 88%
    23:00 +5°C° 0 mm 2 m/S 749 mmHg 89%

    Morgen, 27 April, Freitag

    Zeit Temperatur Niederschläge Wind Luftdruck Luftfeuchtigkeit
    00:00 +5°C° 0 mm 2 m/S 749 mmHg 90%
    01:00 +4°C° 0 mm 2 m/S 749 mmHg 90%
    02:00 +4°C° 0 mm 2 m/S 749 mmHg 90%
    03:00 +4°C° 0 mm 2 m/S 748 mmHg 91%
    04:00 +4°C° 0 mm 2 m/S 748 mmHg 91%
    05:00 +5°C° 0 mm 2 m/S 748 mmHg 88%
    06:00 +6°C° 0 mm 2 m/S 748 mmHg 85%
    07:00 +7°C° 0 mm 2 m/S 748 mmHg 82%
    08:00 +9°C° 0 mm 2 m/S 748 mmHg 74%
    09:00 +12°C° 0 mm 2 m/S 748 mmHg 66%
    10:00 +12°C° 0 mm 3 m/S 747 mmHg 58%
    11:00 +13°C° 0 mm 3 m/S 747 mmHg 56%
    12:00 +14°C° 0 mm 3 m/S 747 mmHg 54%
    13:00 +16°C° 0 mm 3 m/S 746 mmHg 51%
    14:00 +16°C° 0 mm 3 m/S 745 mmHg 51%
    15:00 +17°C° 0 mm 3 m/S 745 mmHg 52%
    16:00 +17°C° 0 mm 3 m/S 744 mmHg 52%
    17:00 +16°C° 0 mm 2 m/S 744 mmHg 58%
    18:00 +15°C° 0 mm 2 m/S 743 mmHg 64%
    19:00 +14°C° 0 mm 1 m/S 743 mmHg 70%
    20:00 +13°C° 0 mm 2 m/S 743 mmHg 73%
    21:00 +12°C° 0 mm 2 m/S 743 mmHg 76%
    22:00 +10°C° 0 mm 2 m/S 743 mmHg 79%
    23:00 +9°C° 0 mm 2 m/S 743 mmHg 81%

    übermorgen, 28 April, Samstag

    Zeit Temperatur Niederschläge Wind Luftdruck Luftfeuchtigkeit
    00:00 +9°C° 0 mm 3 m/S 743 mmHg 83%
    01:00 +9°C° 0 mm 3 m/S 743 mmHg 84%
    02:00 +9°C° 0 mm 3 m/S 743 mmHg 86%
    03:00 +8°C° 0 mm 4 m/S 743 mmHg 88%
    04:00 +8°C° 0 mm 4 m/S 743 mmHg 90%
    05:00 +8°C° 0 mm 4 m/S 744 mmHg 88%
    06:00 +8°C° 0 mm 5 m/S 744 mmHg 85%
    07:00 +9°C° 0 mm 6 m/S 744 mmHg 82%
    08:00 +10°C° 0 mm 6 m/S 744 mmHg 78%
    09:00 +10°C° 0 mm 6 m/S 745 mmHg 73%
    10:00 +11°C° 0 mm 6 m/S 745 mmHg 69%
    11:00 +13°C° 0 mm 6 m/S 745 mmHg 68%
    12:00 +13°C° 0 mm 5 m/S 745 mmHg 66%
    13:00 +14°C° 0 mm 5 m/S 746 mmHg 64%
    14:00 +14°C° 0 mm 4 m/S 746 mmHg 64%
    15:00 +15°C° 0 mm 4 m/S 745 mmHg 64%
    16:00 +16°C° 0 mm 3 m/S 745 mmHg 64%
    17:00 +14°C° 0 mm 3 m/S 745 mmHg 69%
    18:00 +14°C° 0 mm 2 m/S 746 mmHg 73%
    19:00 +13°C° 0 mm 1 m/S 746 mmHg 78%
    20:00 +12°C° 0 mm 1 m/S 746 mmHg 81%
    21:00 +11°C° 0 mm 1 m/S 746 mmHg 83%
    22:00 +10°C° 0 mm 1 m/S 746 mmHg 86%
    23:00 +9°C° 0 mm 1 m/S 746 mmHg 87%

    29 April, Sonntag

    Zeit Temperatur Niederschläge Wind Luftdruck Luftfeuchtigkeit
    00:00 +9°C° 0 mm 1 m/S 746 mmHg 88%
    01:00 +9°C° 0 mm 1 m/S 746 mmHg 88%
    02:00 +9°C° 0,2 mm 1 m/S 746 mmHg 89%
    03:00 +9°C° 0,2 mm 1 m/S 745 mmHg 90%
    04:00 +9°C° 0,2 mm 1 m/S 745 mmHg 90%
    05:00 +9°C° 0,4 mm 2 m/S 745 mmHg 89%
    06:00 +9°C° 0,4 mm 2 m/S 745 mmHg 89%
    07:00 +10°C° 0,4 mm 3 m/S 745 mmHg 88%
    08:00 +12°C° 0,1 mm 4 m/S 744 mmHg 83%
    09:00 +13°C° 0,1 mm 4 m/S 744 mmHg 78%
    10:00 +15°C° 0,1 mm 5 m/S 744 mmHg 74%
    11:00 +17°C° 0 mm 5 m/S 743 mmHg 70%
    12:00 +20°C° 0 mm 5 m/S 743 mmHg 66%
    13:00 +21°C° 0 mm 4 m/S 742 mmHg 63%
    14:00 +22°C° 0,3 mm 4 m/S 742 mmHg 64%
    15:00 +22°C° 0,3 mm 3 m/S 741 mmHg 65%
    16:00 +22°C° 0,3 mm 3 m/S 741 mmHg 65%
    17:00 +21°C° 0,7 mm 3 m/S 740 mmHg 72%
    18:00 +19°C° 0,7 mm 3 m/S 739 mmHg 80%
    19:00 +18°C° 0,7 mm 3 m/S 739 mmHg 87%
    20:00 +17°C° 0,6 mm 3 m/S 739 mmHg 88%
    21:00 +17°C° 0,6 mm 3 m/S 738 mmHg 90%
    22:00 +16°C° 0,6 mm 3 m/S 738 mmHg 92%
    23:00 +16°C° 0,5 mm 3 m/S 737 mmHg 93%

    30 April, Montag

    Zeit Temperatur Niederschläge Wind Luftdruck Luftfeuchtigkeit
    00:00 +15°C° 0,5 mm 2 m/S 737 mmHg 94%
    01:00 +15°C° 0,5 mm 2 m/S 736 mmHg 96%
    02:00 +14°C° 1 mm 3 m/S 736 mmHg 95%
    03:00 +14°C° 1 mm 3 m/S 736 mmHg 95%
    04:00 +13°C° 1 mm 4 m/S 736 mmHg 95%
    05:00 +13°C° 0,1 mm 5 m/S 737 mmHg 92%
    06:00 +11°C° 0,1 mm 6 m/S 737 mmHg 89%
    07:00 +10°C° 0,1 mm 8 m/S 738 mmHg 86%
    08:00 +10°C° 0 mm 8 m/S 739 mmHg 82%
    09:00 +10°C° 0 mm 8 m/S 740 mmHg 77%
    10:00 +11°C° 0 mm 8 m/S 740 mmHg 72%
    11:00 +11°C° 0 mm 9 m/S 741 mmHg 68%
    12:00 +12°C° 0 mm 9 m/S 741 mmHg 64%
    13:00 +12°C° 0 mm 9 m/S 741 mmHg 60%
    14:00 +12°C° 0 mm 9 m/S 741 mmHg 59%
    15:00 +12°C° 0 mm 9 m/S 741 mmHg 59%
    16:00 +12°C° 0 mm 9 m/S 741 mmHg 58%
    17:00 +12°C° 0 mm 8 m/S 741 mmHg 61%
    18:00 +11°C° 0 mm 7 m/S 741 mmHg 64%
    19:00 +10°C° 0 mm 6 m/S 741 mmHg 67%
    20:00 +9°C° 0 mm 6 m/S 742 mmHg 68%
    21:00 +8°C° 0 mm 7 m/S 743 mmHg 68%
    22:00 +6°C° 0 mm 7 m/S 743 mmHg 68%
    23:00 +5°C° 0 mm 6 m/S 744 mmHg 70%

    1 Mai, Dienstag

    Zeit Temperatur Niederschläge Wind Luftdruck Luftfeuchtigkeit
    00:00 +4°C° 0 mm 6 m/S 745 mmHg 73%
    01:00 +3°C° 0 mm 5 m/S 745 mmHg 75%
    02:00 +3°C° 0 mm 5 m/S 745 mmHg 77%
    03:00 +2°C° 0 mm 5 m/S 746 mmHg 80%
    04:00 +3°C° 0 mm 4 m/S 746 mmHg 83%
    05:00 +3°C° 0 mm 5 m/S 747 mmHg 81%
    06:00 +3°C° 0 mm 5 m/S 747 mmHg 79%
    07:00 +5°C° 0 mm 5 m/S 747 mmHg 77%
    08:00 +6°C° 0 mm 5 m/S 747 mmHg 72%
    09:00 +8°C° 0 mm 5 m/S 748 mmHg 67%
    10:00 +10°C° 0 mm 4 m/S 748 mmHg 62%
    11:00 +11°C° 0 mm 4 m/S 748 mmHg 59%
    12:00 +12°C° 0 mm 4 m/S 748 mmHg 56%
    13:00 +13°C° 0 mm 4 m/S 748 mmHg 54%
    14:00 +13°C° 0 mm 3 m/S 748 mmHg 56%
    15:00 +13°C° 0 mm 3 m/S 748 mmHg 58%
    16:00 +12°C° 0 mm 3 m/S 748 mmHg 60%
    17:00 +12°C° 0 mm 2 m/S 748 mmHg 65%
    18:00 +12°C° 0 mm 2 m/S 748 mmHg 70%
    19:00 +11°C° 0 mm 1 m/S 748 mmHg 76%
    20:00 +9°C° 0 mm 1 m/S 748 mmHg 79%
    21:00 +8°C° 0 mm 1 m/S 749 mmHg 83%
    22:00 +6°C° 0 mm 1 m/S 749 mmHg 86%
    23:00 +6°C° 0 mm 1 m/S 749 mmHg 87%
    Mehr zeigen